Hatsu Envoy — VSQL9 — position and weather

sailwx.info

Track history (hours):
 
Tides and Currents Weather Stations Pressure Air Temp Water Temp Dewpoint Dewpoint Depression Visibility Wind Speed Wind Dir Waves Ship Positions

Hatsu Envoy

Last reported at 2014-Sep-16 00:33 UTC. Time now 2014-Sep-16 01:00 UTC.
Position N 22°33' E 120°19'.

Type: Ship (hazmat cat D). MMSI: 235414000.

Date/timePositionNaut miles runAvg speedWind from/ knotsBaromVisibWave heightAir tempDewpointWater temp
2014-Sep-16 00:33N 22°33' E 120°19'0 0.1
2014-Sep-15 23:33N 22°33' E 120°19'3 2.9
2014-Sep-15 22:33N 22°32' E 120°16'5 4.8
2014-Sep-15 21:33N 22°32' E 120°11'10 9.5
2014-Sep-15 20:33N 22°30' E 120°01'1514.6
2014-Sep-15 19:33N 22°29' E 119°45'31413.4
2014-Sep-14 20:04N 22°18' E 114°06'3 0.2
2014-Sep-14 03:12N 22°20' E 114°08'16 2.1
2014-Sep-13 19:30N 22°34' E 114°16'0 0.2
2014-Sep-13 18:30N 22°34' E 114°16'0 0.0
2014-Sep-13 17:30N 22°34' E 114°16'0 0.0
2014-Sep-13 16:24N 22°34' E 114°16'0 0.0
2014-Sep-13 15:30N 22°34' E 114°16'0 0.0
2014-Sep-13 14:30N 22°34' E 114°16'0 0.0
2014-Sep-13 13:30N 22°34' E 114°16'0 0.0
2014-Sep-13 12:24N 22°34' E 114°16'0 0.0
2014-Sep-13 10:18N 22°34' E 114°16'0 0.0
2014-Sep-13 09:24N 22°34' E 114°16'0 0.0
2014-Sep-13 08:31N 22°34' E 114°16'0 0.0
2014-Sep-13 07:30N 22°34' E 114°16'0 0.0
2014-Sep-13 06:18N 22°34' E 114°16'0 0.0
2014-Sep-13 04:30N 22°34' E 114°16'0 0.0
2014-Sep-13 03:12N 22°34' E 114°16'0 0.0
2014-Sep-13 02:33N 22°34' E 114°16'  
2014-Sep-09 18:34N 01°15' E 104°00'  
Track history (hours):
 
Tides and Currents Weather Stations Pressure Air Temp Water Temp Dewpoint Dewpoint Depression Visibility Wind Speed Wind Dir Waves Ship Positions

Hatsu Envoy

Last reported at 2014-Sep-16 00:33 UTC. Time now 2014-Sep-16 01:00 UTC.
Position N 22°33' E 120°19'.

Type: Ship (hazmat cat D). MMSI: 235414000.

Date/timePositionNaut miles runAvg speedWind from/ knotsBaromVisibWave heightAir tempDewpointWater temp
2014-Sep-16 00:33N 22°33' E 120°19'0 0.1
2014-Sep-15 23:33N 22°33' E 120°19'3 2.9
2014-Sep-15 22:33N 22°32' E 120°16'5 4.8
2014-Sep-15 21:33N 22°32' E 120°11'10 9.5
2014-Sep-15 20:33N 22°30' E 120°01'1514.6
2014-Sep-15 19:33N 22°29' E 119°45'31413.4
2014-Sep-14 20:04N 22°18' E 114°06'3 0.2
2014-Sep-14 03:12N 22°20' E 114°08'16 2.1
2014-Sep-13 19:30N 22°34' E 114°16'0 0.2
2014-Sep-13 18:30N 22°34' E 114°16'0 0.0
2014-Sep-13 17:30N 22°34' E 114°16'0 0.0
2014-Sep-13 16:24N 22°34' E 114°16'0 0.0
2014-Sep-13 15:30N 22°34' E 114°16'0 0.0
2014-Sep-13 14:30N 22°34' E 114°16'0 0.0
2014-Sep-13 13:30N 22°34' E 114°16'0 0.0
2014-Sep-13 12:24N 22°34' E 114°16'0 0.0
2014-Sep-13 10:18N 22°34' E 114°16'0 0.0
2014-Sep-13 09:24N 22°34' E 114°16'0 0.0
2014-Sep-13 08:31N 22°34' E 114°16'0 0.0
2014-Sep-13 07:30N 22°34' E 114°16'0 0.0
2014-Sep-13 06:18N 22°34' E 114°16'0 0.0
2014-Sep-13 04:30N 22°34' E 114°16'0 0.0
2014-Sep-13 03:12N 22°34' E 114°16'0 0.0
2014-Sep-13 02:33N 22°34' E 114°16'  
2014-Sep-09 18:34N 01°15' E 104°00'  

Dump ship's entire track history